| time (UTC) | temp F | wind direction | speed MPH | gust MPH | rain 1hr in | rain 24hr in | rain mn in | humidity % | barometer mb |
| 20260831191914 | 92 | 122 | 1.0 | 1.0 | 0.00 | 0.00 | 0.00 | 63 | 1015.2 |
| 20260831191410 | 92 | 139 | 2.0 | 3.0 | 0.00 | 0.00 | 0.00 | 63 | 1015.8 |
| 20260831190906 | 91 | 124 | 2.0 | 3.0 | 0.00 | 0.00 | 0.00 | 64 | 1015.7 |
| 20260831190406 | 91 | 154 | 3.0 | 3.0 | 0.00 | 0.00 | 0.00 | 67 | 1015.7 |
| 20260831185905 | 91 | 131 | 2.0 | 2.0 | 0.00 | 0.00 | 0.00 | 65 | 1015.8 |
| 20260831185401 | 90 | 97 | 2.0 | 2.0 | 0.00 | 0.00 | 0.00 | 65 | 1015.8 |
| 20260831184900 | 90 | 129 | 5.0 | 6.0 | 0.00 | 0.00 | 0.00 | 69 | 1015.9 |
| 20260831184355 | 90 | 122 | 0.0 | 0.0 | 0.00 | 0.00 | 0.00 | 68 | 1016.0 |
| 20260831183850 | 90 | 130 | 2.0 | 2.0 | 0.00 | 0.00 | 0.00 | 69 | 1015.8 |
| 20260831183350 | 89 | 110 | 2.0 | 2.0 | 0.00 | 0.00 | 0.00 | 69 | 1015.9 |
| 20260831182849 | 90 | 133 | 3.0 | 5.0 | 0.00 | 0.00 | 0.00 | 72 | 1016.2 |
| 20260831182345 | 89 | 112 | 4.0 | 5.0 | 0.00 | 0.00 | 0.00 | 69 | 1016.1 |
| 20260831181840 | 90 | 119 | 1.0 | 1.0 | 0.00 | 0.00 | 0.00 | 69 | 1016.3 |
| 20260831181335 | 89 | 136 | 1.0 | 1.0 | 0.00 | 0.00 | 0.00 | 74 | 1016.4 |
| 20260831180830 | 89 | 132 | 2.0 | 3.0 | 0.00 | 0.00 | 0.00 | 68 | 1016.3 |
| 20260831180325 | 89 | 125 | 2.0 | 2.0 | 0.00 | 0.00 | 0.00 | 71 | 1016.4 |
| 20260831175824 | 89 | 128 | 1.0 | 1.0 | 0.00 | 0.00 | 0.00 | 74 | 1016.2 |
| 20260831175320 | 88 | 140 | 4.0 | 5.0 | 0.00 | 0.00 | 0.00 | 75 | 1016.5 |
| 20260831174816 | 87 | 121 | 3.0 | 3.0 | 0.00 | 0.00 | 0.00 | 74 | 1016.5 |
| 20260831174312 | 87 | 124 | 3.0 | 3.0 | 0.00 | 0.00 | 0.00 | 75 | 1016.6 |
| 20260831173811 | 87 | 155 | 4.0 | 5.0 | 0.00 | 0.00 | 0.00 | 77 | 1016.6 |
| 20260831173305 | 87 | 101 | 2.0 | 2.0 | 0.00 | 0.00 | 0.00 | 78 | 1016.5 |
| 20260831172800 | 87 | 152 | 5.0 | 6.0 | 0.00 | 0.00 | 0.00 | 78 | 1016.9 |
| 20260831172255 | 87 | 141 | 3.0 | 3.0 | 0.00 | 0.00 | 0.00 | 76 | 1016.7 |
| 20260831171755 | 87 | 134 | 2.0 | 2.0 | 0.00 | 0.00 | 0.00 | 80 | 1016.8 |
| 20260831171253 | 86 | 147 | 3.0 | 3.0 | 0.00 | 0.00 | 0.00 | 81 | 1016.8 |
| 20260831170749 | 85 | 133 | 3.0 | 3.0 | 0.00 | 0.00 | 0.00 | 80 | 1016.8 |
| 20260831170245 | 85 | 134 | 2.0 | 2.0 | 0.00 | 0.00 | 0.00 | 82 | 1016.9 |
| 20260831165741 | 86 | 124 | 2.0 | 2.0 | 0.00 | 0.00 | 0.00 | 78 | 1016.7 |
| 20260831165237 | 85 | 113 | 1.0 | 2.0 | 0.00 | 0.00 | 0.00 | 80 | 1017.0 |
| 20260831164733 | 85 | 131 | 2.0 | 2.0 | 0.00 | 0.00 | 0.00 | 81 | 1016.9 |
| 20260831164229 | 84 | 126 | 0.0 | 1.0 | 0.00 | 0.00 | 0.00 | 87 | 1016.9 |
| 20260831163724 | 83 | 114 | 0.0 | 0.0 | 0.00 | 0.00 | 0.00 | 88 | 1017.1 |
| 20260831163220 | 84 | 125 | 2.0 | 2.0 | 0.00 | 0.00 | 0.00 | 84 | 1016.9 |
| 20260831162718 | 83 | 131 | 4.0 | 5.0 | 0.00 | 0.00 | 0.00 | 84 | 1017.0 |
| 20260831162217 | 82 | 127 | 1.0 | 1.0 | 0.00 | 0.00 | 0.00 | 89 | 1017.2 |
| 20260831161712 | 81 | 118 | 3.0 | 3.0 | 0.00 | 0.00 | 0.00 | 88 | 1017.0 |
| 20260831161209 | 81 | 138 | 1.0 | 2.0 | 0.00 | 0.00 | 0.00 | 89 | 1016.9 |
| 20260831160708 | 81 | 125 | 3.0 | 3.0 | 0.00 | 0.00 | 0.00 | 87 | 1016.9 |
| 20260831160204 | 81 | 126 | 0.0 | 1.0 | 0.00 | 0.00 | 0.00 | 92 | 1016.9 |
| 20260831155703 | 80 | 125 | 3.0 | 3.0 | 0.00 | 0.00 | 0.00 | 87 | 1017.0 |
| 20260831155159 | 80 | 119 | 3.0 | 3.0 | 0.00 | 0.00 | 0.00 | 91 | 1017.1 |
| 20260831154655 | 79 | 116 | 3.0 | 3.0 | 0.00 | 0.00 | 0.00 | 92 | 1017.3 |
| 20260831154150 | 79 | 125 | 1.0 | 2.0 | 0.00 | 0.00 | 0.00 | 93 | 1017.0 |
| 20260831153649 | 78 | 111 | 1.0 | 2.0 | 0.00 | 0.00 | 0.00 | 94 | 1017.0 |
| 20260831153145 | 78 | 106 | 4.0 | 5.0 | 0.00 | 0.00 | 0.00 | 93 | 1017.0 |
| 20260831152640 | 77 | 123 | 2.0 | 2.0 | 0.00 | 0.00 | 0.00 | 95 | 1017.2 |
| 20260831152137 | 77 | 119 | 2.0 | 3.0 | 0.00 | 0.00 | 0.00 | 97 | 1017.0 |
| 20260831151636 | 76 | 129 | 1.0 | 1.0 | 0.00 | 0.00 | 0.00 | 99 | 1017.2 |
| 20260831151131 | 76 | 117 | 1.0 | 1.0 | 0.00 | 0.00 | 0.00 | 99 | 1017.2 |
| 20260831150626 | 75 | 119 | 1.0 | 2.0 | 0.00 | 0.00 | 0.00 | 99 | 1017.2 |
| 20260831150121 | 75 | 119 | 0.0 | 0.0 | 0.00 | 0.00 | 0.00 | 99 | 1017.0 |
| 20260831145615 | 75 | 123 | 0.0 | 0.0 | 0.00 | 0.00 | 0.00 | 99 | 1017.2 |
| 20260831145111 | 75 | 124 | 1.0 | 2.0 | 0.00 | 0.00 | 0.00 | 99 | 1017.2 |
| 20260831144602 | 75 | 129 | 1.0 | 1.0 | 0.00 | 0.00 | 0.00 | 99 | 1017.3 |
| 20260831144057 | 75 | 125 | 1.0 | 1.0 | 0.00 | 0.00 | 0.00 | 99 | 1017.0 |
| 20260831143551 | 75 | 133 | 0.0 | 0.0 | 0.00 | 0.00 | 0.00 | 99 | 1017.1 |
| 20260831143046 | 75 | 122 | 0.0 | 0.0 | 0.00 | 0.00 | 0.00 | 99 | 1016.9 |
| 20260831142543 | 74 | 118 | 0.0 | 0.0 | 0.00 | 0.00 | 0.00 | 99 | 1017.0 |
| 20260831142043 | 74 | 113 | 0.0 | 0.0 | 0.00 | 0.00 | 0.00 | 99 | 1016.8 |
| 20260831141542 | 74 | 122 | 0.0 | 0.0 | 0.00 | 0.00 | 0.00 | 99 | 1016.6 |
| 20260831141038 | 74 | 125 | 0.0 | 0.0 | 0.00 | 0.00 | 0.00 | 99 | 1016.8 |
| 20260831140537 | 74 | 118 | 0.0 | 0.0 | 0.00 | 0.00 | 0.00 | 99 | 1016.7 |
| 20260831140037 | 74 | 119 | 0.0 | 0.0 | 0.00 | 0.00 | 0.00 | 99 | 1016.8 |
| 20260831135535 | 74 | 127 | 0.0 | 0.0 | 0.00 | 0.00 | 0.00 | 99 | 1016.9 |
| 20260831135031 | 74 | 122 | 0.0 | 0.0 | 0.00 | 0.00 | 0.00 | 99 | 1016.8 |
| 20260831134527 | 74 | 123 | 0.0 | 0.0 | 0.00 | 0.00 | 0.00 | 99 | 1016.7 |
| 20260831134027 | 74 | 125 | 0.0 | 0.0 | 0.00 | 0.00 | 0.00 | 99 | 1016.6 |
| 20260831133521 | 73 | 124 | 0.0 | 0.0 | 0.00 | 0.00 | 0.00 | 99 | 1016.8 |
| 20260831133021 | 73 | 126 | 0.0 | 0.0 | 0.00 | 0.00 | 0.00 | 99 | 1016.8 |
| 20260831132425 | 72 | 124 | 0.0 | 0.0 | 0.00 | 0.00 | 0.00 | 99 | 1016.7 |
| 20260831131924 | 72 | 124 | 0.0 | 0.0 | 0.00 | 0.00 | 0.00 | 99 | 1016.7 |
| 20260831131419 | 72 | 122 | 0.0 | 0.0 | 0.00 | 0.00 | 0.00 | 99 | 1016.8 |
| 20260831130915 | 72 | 122 | 0.0 | 0.0 | 0.00 | 0.00 | 0.00 | 99 | 1016.8 |
| 20260831130411 | 71 | 122 | 0.0 | 0.0 | 0.00 | 0.00 | 0.00 | 99 | 1016.8 |
| 20260831125910 | 71 | 123 | 0.0 | 0.0 | 0.00 | 0.00 | 0.00 | 99 | 1016.7 |
| 20260831125405 | 71 | 123 | 0.0 | 0.0 | 0.00 | 0.00 | 0.00 | 99 | 1016.7 |
| 20260831124900 | 71 | 127 | 0.0 | 0.0 | 0.00 | 0.00 | 0.00 | 99 | 1016.7 |
| 20260831124356 | 71 | 124 | 0.0 | 0.0 | 0.00 | 0.00 | 0.00 | 99 | 1016.6 |
| 20260831123851 | 70 | 120 | 0.0 | 0.0 | 0.00 | 0.00 | 0.00 | 99 | 1016.5 |
| 20260831123350 | 70 | 123 | 0.0 | 0.0 | 0.00 | 0.00 | 0.00 | 99 | 1016.6 |
| 20260831122845 | 70 | 128 | 0.0 | 0.0 | 0.00 | 0.00 | 0.00 | 99 | 1016.5 |
| 20260831122340 | 70 | 122 | 0.0 | 0.0 | 0.00 | 0.00 | 0.00 | 99 | 1016.3 |
| 20260831121840 | 70 | 122 | 0.0 | 0.0 | 0.00 | 0.00 | 0.00 | 99 | 1016.6 |
| 20260831121336 | 70 | 123 | 0.0 | 0.0 | 0.00 | 0.00 | 0.00 | 99 | 1016.6 |
| 20260831120832 | 69 | 123 | 0.0 | 0.0 | 0.00 | 0.00 | 0.00 | 99 | 1016.7 |
| 20260831120326 | 69 | 122 | 0.0 | 0.0 | 0.00 | 0.00 | 0.00 | 99 | 1016.4 |
| 20260831115821 | 69 | 122 | 0.0 | 0.0 | 0.00 | 0.00 | 0.00 | 99 | 1016.4 |
| 20260831115318 | 69 | 124 | 0.0 | 0.0 | 0.00 | 0.00 | 0.00 | 99 | 1016.5 |
| 20260831114817 | 69 | 122 | 0.0 | 0.0 | 0.00 | 0.00 | 0.00 | 99 | 1016.5 |
| 20260831114316 | 69 | 122 | 0.0 | 0.0 | 0.00 | 0.00 | 0.00 | 99 | 1016.5 |
| 20260831113812 | 69 | 123 | 0.0 | 0.0 | 0.00 | 0.00 | 0.00 | 99 | 1016.3 |
| 20260831113312 | 69 | 123 | 0.0 | 0.0 | 0.00 | 0.00 | 0.00 | 99 | 1016.5 |
| 20260831112806 | 68 | 122 | 0.0 | 0.0 | 0.00 | 0.00 | 0.00 | 99 | 1016.4 |
| 20260831112301 | 68 | 122 | 0.0 | 0.0 | 0.00 | 0.00 | 0.00 | 99 | 1016.3 |
| 20260831111756 | 68 | 121 | 0.0 | 0.0 | 0.00 | 0.00 | 0.00 | 99 | 1016.3 |
| 20260831111253 | 68 | 122 | 0.0 | 0.0 | 0.00 | 0.00 | 0.00 | 99 | 1016.1 |
| 20260831110749 | 68 | 126 | 0.0 | 0.0 | 0.00 | 0.00 | 0.00 | 99 | 1015.9 |
| 20260831110243 | 68 | 125 | 0.0 | 0.0 | 0.00 | 0.00 | 0.00 | 99 | 1015.9 |
| 20260831105741 | 68 | 122 | 0.0 | 0.0 | 0.00 | 0.00 | 0.00 | 99 | 1016.0 |
| 20260831105237 | 68 | 121 | 0.0 | 0.0 | 0.00 | 0.00 | 0.00 | 99 | 1016.0 |
| 20260831104732 | 68 | 123 | 0.0 | 0.0 | 0.00 | 0.00 | 0.00 | 99 | 1016.0 |
| 20260831104229 | 68 | 125 | 1.0 | 1.0 | 0.00 | 0.00 | 0.00 | 99 | 1015.7 |
| 20260831103729 | 68 | 128 | 2.0 | 2.0 | 0.00 | 0.00 | 0.00 | 99 | 1015.7 |
| 20260831103225 | 68 | 125 | 0.0 | 0.0 | 0.00 | 0.00 | 0.00 | 99 | 1015.7 |
| 20260831102724 | 68 | 123 | 0.0 | 0.0 | 0.00 | 0.00 | 0.00 | 99 | 1015.8 |
| 20260831102219 | 68 | 124 | 0.0 | 0.0 | 0.00 | 0.00 | 0.00 | 99 | 1015.8 |
| 20260831101714 | 68 | 123 | 0.0 | 0.0 | 0.00 | 0.00 | 0.00 | 99 | 1015.7 |
| 20260831101210 | 68 | 123 | 0.0 | 0.0 | 0.00 | 0.00 | 0.00 | 99 | 1015.7 |
| 20260831100706 | 68 | 123 | 0.0 | 0.0 | 0.00 | 0.00 | 0.00 | 99 | 1015.7 |
| 20260831100202 | 68 | 123 | 0.0 | 0.0 | 0.00 | 0.00 | 0.00 | 99 | 1015.5 |
| 20260831095700 | 68 | 123 | 0.0 | 0.0 | 0.00 | 0.00 | 0.00 | 99 | 1015.7 |
| 20260831095155 | 68 | 126 | 1.0 | 1.0 | 0.00 | 0.00 | 0.00 | 99 | 1015.5 |
| 20260831094650 | 68 | 124 | 0.0 | 0.0 | 0.00 | 0.00 | 0.00 | 99 | 1015.5 |
| 20260831094146 | 68 | 124 | 0.0 | 0.0 | 0.00 | 0.00 | 0.00 | 99 | 1015.5 |
| 20260831093641 | 68 | 123 | 0.0 | 0.0 | 0.00 | 0.00 | 0.00 | 99 | 1015.7 |
| 20260831093138 | 68 | 122 | 0.0 | 0.0 | 0.00 | 0.00 | 0.00 | 99 | 1015.8 |
| 20260831092634 | 68 | 122 | 0.0 | 0.0 | 0.00 | 0.00 | 0.00 | 99 | 1015.8 |
| 20260831092129 | 68 | 122 | 0.0 | 0.0 | 0.00 | 0.00 | 0.00 | 99 | 1015.7 |
| 20260831091628 | 68 | 122 | 0.0 | 0.0 | 0.00 | 0.00 | 0.00 | 99 | 1015.4 |
| 20260831091124 | 68 | 122 | 0.0 | 0.0 | 0.00 | 0.00 | 0.00 | 99 | 1015.8 |
| 20260831090619 | 68 | 122 | 0.0 | 0.0 | 0.00 | 0.00 | 0.00 | 99 | 1015.4 |
| 20260831090115 | 68 | 122 | 0.0 | 0.0 | 0.00 | 0.00 | 0.00 | 99 | 1015.5 |
| 20260831085610 | 68 | 122 | 0.0 | 0.0 | 0.00 | 0.00 | 0.00 | 99 | 1015.4 |
| 20260831085106 | 68 | 121 | 0.0 | 0.0 | 0.00 | 0.00 | 0.00 | 99 | 1015.5 |
| 20260831084602 | 68 | 122 | 0.0 | 0.0 | 0.00 | 0.00 | 0.00 | 99 | 1015.5 |
| 20260831084058 | 68 | 121 | 0.0 | 0.0 | 0.00 | 0.00 | 0.00 | 99 | 1015.5 |
| 20260831083554 | 68 | 123 | 0.0 | 0.0 | 0.00 | 0.00 | 0.00 | 99 | 1015.5 |
| 20260831083048 | 68 | 123 | 0.0 | 0.0 | 0.00 | 0.00 | 0.00 | 99 | 1015.7 |
| 20260831082547 | 69 | 122 | 0.0 | 0.0 | 0.00 | 0.00 | 0.00 | 99 | 1015.7 |
| 20260831082043 | 69 | 123 | 0.0 | 0.0 | 0.00 | 0.00 | 0.00 | 99 | 1015.4 |
| 20260831081538 | 69 | 123 | 0.0 | 0.0 | 0.00 | 0.00 | 0.00 | 99 | 1015.4 |
| 20260831081034 | 68 | 122 | 0.0 | 0.0 | 0.00 | 0.00 | 0.00 | 99 | 1015.2 |
| 20260831080534 | 69 | 122 | 0.0 | 0.0 | 0.00 | 0.00 | 0.00 | 99 | 1015.3 |
| 20260831080030 | 68 | 122 | 0.0 | 0.0 | 0.00 | 0.00 | 0.00 | 99 | 1015.2 |
| 20260831075525 | 69 | 124 | 0.0 | 0.0 | 0.00 | 0.00 | 0.00 | 99 | 1015.1 |
| 20260831075021 | 69 | 124 | 0.0 | 0.0 | 0.00 | 0.00 | 0.00 | 99 | 1015.2 |
| 20260831074520 | 69 | 123 | 0.0 | 0.0 | 0.00 | 0.00 | 0.00 | 99 | 1015.0 |
| 20260831072724 | 69 | 122 | 0.0 | 0.0 | 0.00 | 0.00 | 0.00 | 99 | 1015.1 |
| 20260831072221 | 69 | 122 | 0.0 | 0.0 | 0.00 | 0.00 | 0.00 | 99 | 1015.1 |
| 20260831071720 | 69 | 122 | 0.0 | 0.0 | 0.00 | 0.00 | 0.00 | 99 | 1015.1 |
| 20260831070534 | 69 | 122 | 0.0 | 0.0 | 0.00 | 0.00 | 0.00 | 99 | 1015.2 |
| 20260831070029 | 69 | 122 | 0.0 | 0.0 | 0.00 | 0.00 | 0.00 | 99 | 1015.2 |
| 20260831065526 | 70 | 122 | 0.0 | 0.0 | 0.00 | 0.00 | 0.00 | 99 | 1015.3 |
| 20260831065021 | 70 | 122 | 0.0 | 0.0 | 0.00 | 0.00 | 0.00 | 99 | 1015.3 |
| 20260831063809 | 70 | 122 | 0.0 | 0.0 | 0.00 | 0.00 | 0.00 | 99 | 1015.3 |
| 20260831063303 | 70 | 122 | 0.0 | 0.0 | 0.00 | 0.00 | 0.00 | 99 | 1015.3 |
| 20260831062803 | 70 | 124 | 0.0 | 0.0 | 0.00 | 0.00 | 0.00 | 99 | 1015.3 |
| 20260831062258 | 70 | 124 | 0.0 | 0.0 | 0.00 | 0.00 | 0.00 | 99 | 1015.4 |
| 20260831061756 | 70 | 123 | 0.0 | 0.0 | 0.00 | 0.00 | 0.00 | 99 | 1015.4 |
| 20260831061251 | 70 | 123 | 0.0 | 0.0 | 0.00 | 0.00 | 0.00 | 99 | 1015.5 |
| 20260831060748 | 70 | 123 | 0.0 | 0.0 | 0.00 | 0.00 | 0.00 | 99 | 1015.3 |
| 20260831060247 | 70 | 123 | 0.0 | 0.0 | 0.00 | 0.00 | 0.00 | 99 | 1015.4 |
| 20260831055747 | 71 | 123 | 0.0 | 0.0 | 0.00 | 0.00 | 0.00 | 99 | 1015.5 |
| 20260831055242 | 71 | 123 | 0.0 | 0.0 | 0.00 | 0.00 | 0.00 | 99 | 1015.5 |
| 20260831054737 | 71 | 123 | 0.0 | 0.0 | 0.00 | 0.00 | 0.00 | 99 | 1015.7 |
| 20260831054232 | 71 | 123 | 0.0 | 0.0 | 0.00 | 0.00 | 0.00 | 99 | 1015.4 |
| 20260831053731 | 71 | 123 | 0.0 | 0.0 | 0.00 | 0.00 | 0.00 | 99 | 1015.4 |
| 20260831053230 | 71 | 123 | 0.0 | 0.0 | 0.00 | 0.00 | 0.00 | 99 | 1015.4 |
| 20260831052729 | 71 | 123 | 0.0 | 0.0 | 0.00 | 0.00 | 0.00 | 99 | 1015.8 |
| 20260831052223 | 71 | 123 | 0.0 | 0.0 | 0.00 | 0.00 | 0.00 | 99 | 1015.8 |
| 20260831051721 | 71 | 123 | 0.0 | 0.0 | 0.00 | 0.00 | 0.00 | 99 | 1015.5 |
| 20260831051220 | 71 | 123 | 0.0 | 0.0 | 0.00 | 0.00 | 0.00 | 99 | 1015.4 |
| 20260831050715 | 72 | 123 | 0.0 | 0.0 | 0.00 | 0.00 | 0.00 | 99 | 1015.5 |
| 20260831050214 | 71 | 123 | 0.0 | 0.0 | 0.00 | 0.00 | 0.00 | 99 | 1015.5 |
| 20260831045709 | 71 | 123 | 0.0 | 0.0 | 0.00 | 0.00 | 0.00 | 99 | 1015.7 |
| 20260831045204 | 72 | 123 | 0.0 | 0.0 | 0.00 | 0.00 | 0.00 | 99 | 1015.5 |
| 20260831044658 | 72 | 124 | 0.0 | 0.0 | 0.00 | 0.00 | 0.00 | 99 | 1015.7 |
| 20260831044153 | 72 | 123 | 0.0 | 0.0 | 0.00 | 0.00 | 0.00 | 99 | 1015.5 |
| 20260831043649 | 72 | 123 | 0.0 | 0.0 | 0.00 | 0.00 | 0.00 | 99 | 1015.8 |
| 20260831043144 | 72 | 123 | 0.0 | 0.0 | 0.00 | 0.00 | 0.00 | 99 | 1015.7 |
| 20260831042643 | 72 | 123 | 0.0 | 0.0 | 0.00 | 0.00 | 0.00 | 99 | 1015.9 |
| 20260831042138 | 72 | 123 | 0.0 | 0.0 | 0.00 | 0.00 | 0.00 | 99 | 1015.7 |
| 20260831041632 | 72 | 123 | 0.0 | 0.0 | 0.00 | 0.00 | 0.00 | 99 | 1015.5 |
| 20260831041127 | 72 | 123 | 0.0 | 0.0 | 0.00 | 0.00 | 0.00 | 99 | 1015.8 |
| 20260831040622 | 72 | 123 | 0.0 | 0.0 | 0.00 | 0.00 | 0.00 | 99 | 1015.9 |
| 20260831040121 | 73 | 125 | 0.0 | 0.0 | 0.00 | 0.00 | 0.00 | 99 | 1015.9 |
| 20260831035619 | 73 | 126 | 0.0 | 0.0 | 0.00 | 0.87 | 0.87 | 99 | 1015.9 |
| 20260831035114 | 73 | 125 | 0.0 | 0.0 | 0.00 | 0.87 | 0.87 | 99 | 1016.0 |
| 20260831034613 | 73 | 125 | 0.0 | 0.0 | 0.00 | 0.87 | 0.87 | 99 | 1016.1 |
| 20260831034109 | 73 | 125 | 0.0 | 0.0 | 0.00 | 0.87 | 0.87 | 99 | 1015.9 |
| 20260831033604 | 73 | 125 | 0.0 | 0.0 | 0.00 | 0.87 | 0.87 | 99 | 1016.2 |
| 20260831033059 | 73 | 125 | 0.0 | 0.0 | 0.00 | 0.87 | 0.87 | 99 | 1016.1 |
| 20260831032559 | 73 | 125 | 0.0 | 0.0 | 0.00 | 0.87 | 0.87 | 99 | 1016.0 |
| 20260831032054 | 73 | 125 | 0.0 | 0.0 | 0.00 | 0.87 | 0.87 | 99 | 1016.0 |
| 20260831031554 | 74 | 125 | 0.0 | 0.0 | 0.00 | 0.87 | 0.87 | 99 | 1015.9 |
| 20260831031054 | 73 | 125 | 0.0 | 0.0 | 0.00 | 0.87 | 0.87 | 99 | 1016.0 |
| 20260831030553 | 73 | 125 | 0.0 | 0.0 | 0.00 | 0.87 | 0.87 | 99 | 1015.9 |
| 20260831030052 | 74 | 125 | 0.0 | 0.0 | 0.00 | 0.87 | 0.87 | 99 | 1016.0 |
| 20260831025551 | 74 | 126 | 0.0 | 0.0 | 0.00 | 0.87 | 0.87 | 99 | 1016.1 |
| 20260831025046 | 74 | 123 | 0.0 | 0.0 | 0.00 | 0.87 | 0.87 | 99 | 1015.8 |
| 20260831024542 | 74 | 124 | 0.0 | 0.0 | 0.00 | 0.87 | 0.87 | 99 | 1016.2 |
| 20260831024040 | 74 | 122 | 0.0 | 0.0 | 0.00 | 0.87 | 0.87 | 99 | 1015.8 |
| 20260831023539 | 74 | 122 | 0.0 | 0.0 | 0.00 | 0.87 | 0.87 | 99 | 1015.7 |
| 20260831023033 | 74 | 122 | 0.0 | 0.0 | 0.00 | 0.87 | 0.87 | 99 | 1015.9 |
| 20260831022533 | 74 | 124 | 0.0 | 0.0 | 0.00 | 0.87 | 0.87 | 99 | 1015.8 |
| 20260831022028 | 74 | 123 | 0.0 | 0.0 | 0.00 | 0.87 | 0.87 | 99 | 1015.8 |
| 20260831021527 | 74 | 125 | 0.0 | 0.0 | 0.00 | 0.87 | 0.87 | 99 | 1016.0 |
| 20260831021023 | 74 | 125 | 0.0 | 0.0 | 0.00 | 0.87 | 0.87 | 99 | 1016.1 |
| 20260831020518 | 74 | 125 | 0.0 | 0.0 | 0.00 | 0.87 | 0.87 | 99 | 1015.8 |
| 20260831020013 | 74 | 125 | 0.0 | 0.0 | 0.00 | 0.87 | 0.87 | 99 | 1015.8 |
| 20260831015509 | 74 | 123 | 0.0 | 0.0 | 0.00 | 0.87 | 0.87 | 99 | 1015.9 |
| 20260831015004 | 74 | 123 | 0.0 | 0.0 | 0.00 | 0.87 | 0.87 | 99 | 1015.8 |
| 20260831014458 | 74 | 123 | 0.0 | 0.0 | 0.00 | 0.87 | 0.87 | 99 | 1015.9 |
| 20260831013953 | 75 | 124 | 0.0 | 0.0 | 0.00 | 0.87 | 0.87 | 99 | 1015.5 |
| 20260831013449 | 75 | 123 | 0.0 | 0.0 | 0.00 | 0.87 | 0.87 | 99 | 1015.9 |
| 20260831012943 | 75 | 123 | 0.0 | 0.0 | 0.00 | 0.87 | 0.87 | 99 | 1015.9 |
| 20260831012439 | 75 | 127 | 0.0 | 0.0 | 0.00 | 0.87 | 0.87 | 99 | 1015.8 |
| 20260831011938 | 75 | 127 | 0.0 | 0.0 | 0.00 | 0.87 | 0.87 | 99 | 1015.8 |
| 20260831011433 | 75 | 127 | 0.0 | 0.0 | 0.00 | 0.87 | 0.87 | 99 | 1015.8 |
| 20260831010929 | 75 | 127 | 0.0 | 0.0 | 0.00 | 0.87 | 0.87 | 99 | 1015.5 |
| 20260831010424 | 75 | 127 | 0.0 | 0.0 | 0.00 | 0.87 | 0.87 | 99 | 1015.7 |
| 20260831005919 | 75 | 127 | 0.0 | 0.0 | 0.00 | 0.87 | 0.87 | 99 | 1015.7 |
| 20260831005415 | 75 | 127 | 0.0 | 0.0 | 0.00 | 0.87 | 0.87 | 99 | 1015.2 |
| 20260831004909 | 75 | 127 | 0.0 | 0.0 | 0.00 | 0.87 | 0.87 | 99 | 1015.2 |
| 20260831004406 | 75 | 127 | 0.0 | 0.0 | 0.00 | 0.87 | 0.87 | 99 | 1015.2 |
| 20260831003901 | 75 | 127 | 0.0 | 0.0 | 0.00 | 0.87 | 0.87 | 99 | 1015.1 |
| 20260831003357 | 75 | 128 | 0.0 | 0.0 | 0.00 | 0.87 | 0.87 | 99 | 1015.0 |
| 20260831002856 | 75 | 127 | 0.0 | 0.0 | 0.00 | 0.87 | 0.87 | 99 | 1015.0 |
| 20260831002355 | 76 | 127 | 0.0 | 0.0 | 0.00 | 0.87 | 0.87 | 99 | 1015.3 |
| 20260831001851 | 76 | 127 | 0.0 | 0.0 | 0.00 | 0.87 | 0.87 | 99 | 1015.0 |
| 20260831001351 | 76 | 127 | 0.0 | 0.0 | 0.00 | 0.87 | 0.87 | 98 | 1015.2 |
| 20260831000849 | 76 | 127 | 0.0 | 0.0 | 0.00 | 0.87 | 0.87 | 98 | 1014.8 |
| 20260831000344 | 77 | 127 | 0.0 | 0.0 | 0.00 | 0.87 | 0.87 | 98 | 1014.8 |
| 20260830235842 | 77 | 127 | 0.0 | 0.0 | 0.00 | 0.87 | 0.87 | 98 | 1015.2 |
| 20260830235337 | 78 | 127 | 0.0 | 0.0 | 0.00 | 0.87 | 0.87 | 97 | 1015.0 |
| 20260830234833 | 78 | 127 | 0.0 | 0.0 | 0.00 | 0.87 | 0.87 | 97 | 1014.9 |
| 20260830234328 | 78 | 127 | 0.0 | 0.0 | 0.00 | 0.87 | 0.87 | 96 | 1014.9 |
| 20260830233824 | 79 | 127 | 0.0 | 0.0 | 0.00 | 0.87 | 0.87 | 96 | 1014.8 |
| 20260830233319 | 79 | 127 | 0.0 | 0.0 | 0.00 | 0.87 | 0.87 | 96 | 1014.8 |
| 20260830232815 | 80 | 127 | 0.0 | 0.0 | 0.00 | 0.87 | 0.87 | 96 | 1014.6 |
| 20260830232310 | 80 | 127 | 0.0 | 0.0 | 0.00 | 0.87 | 0.87 | 96 | 1014.5 |
| 20260830231806 | 80 | 127 | 0.0 | 0.0 | 0.00 | 0.87 | 0.87 | 96 | 1014.3 |
| 20260830231301 | 80 | 127 | 0.0 | 0.0 | 0.00 | 0.87 | 0.87 | 96 | 1014.4 |
| 20260830230755 | 79 | 127 | 0.0 | 0.0 | 0.00 | 0.87 | 0.87 | 96 | 1014.3 |
| 20260830230250 | 80 | 125 | 1.0 | 1.0 | 0.00 | 0.87 | 0.87 | 96 | 1014.3 |
| 20260830225750 | 80 | 127 | 1.0 | 1.0 | 0.00 | 0.87 | 0.87 | 96 | 1014.1 |
| 20260830225245 | 80 | 130 | 1.0 | 1.0 | 0.00 | 0.87 | 0.87 | 95 | 1014.3 |
| 20260830224744 | 80 | 125 | 1.0 | 1.0 | 0.00 | 0.87 | 0.87 | 95 | 1014.3 |
| 20260830224240 | 80 | 126 | 1.0 | 1.0 | 0.00 | 0.87 | 0.87 | 95 | 1014.4 |
| 20260830223736 | 79 | 128 | 2.0 | 2.0 | 0.00 | 0.87 | 0.87 | 95 | 1014.3 |
| 20260830223232 | 79 | 128 | 2.0 | 2.0 | 0.00 | 0.87 | 0.87 | 96 | 1014.5 |
| 20260830222726 | 79 | 132 | 2.0 | 2.0 | 0.00 | 0.87 | 0.87 | 96 | 1014.6 |
| 20260830222221 | 79 | 129 | 2.0 | 2.0 | 0.00 | 0.87 | 0.87 | 96 | 1014.6 |
| 20260830221717 | 79 | 128 | 3.0 | 3.0 | 0.00 | 0.87 | 0.87 | 95 | 1014.6 |
| 20260830221214 | 79 | 131 | 3.0 | 3.0 | 0.00 | 0.87 | 0.87 | 95 | 1014.6 |
| 20260830220708 | 79 | 128 | 1.0 | 1.0 | 0.00 | 0.87 | 0.87 | 96 | 1015.0 |
| 20260830220202 | 79 | 128 | 1.0 | 2.0 | 0.00 | 0.87 | 0.87 | 96 | 1014.9 |
| 20260830215701 | 79 | 127 | 1.0 | 1.0 | 0.00 | 0.87 | 0.87 | 96 | 1014.7 |
| 20260830215155 | 78 | 125 | 1.0 | 1.0 | 0.00 | 0.87 | 0.87 | 96 | 1014.9 |
| 20260830214651 | 78 | 127 | 1.0 | 1.0 | 0.00 | 0.87 | 0.87 | 96 | 1014.8 |
| 20260830214145 | 78 | 129 | 0.0 | 0.0 | 0.00 | 0.87 | 0.87 | 96 | 1015.0 |
| 20260830213644 | 78 | 134 | 2.0 | 2.0 | 0.00 | 0.87 | 0.87 | 97 | 1014.9 |
| 20260830213140 | 78 | 129 | 2.0 | 2.0 | 0.00 | 0.87 | 0.87 | 96 | 1014.8 |
| 20260830212636 | 78 | 121 | 0.0 | 0.0 | 0.00 | 0.87 | 0.87 | 95 | 1014.9 |
| 20260830212131 | 78 | 126 | 0.0 | 0.0 | 0.00 | 0.87 | 0.87 | 95 | 1014.9 |
| 20260830211626 | 79 | 128 | 2.0 | 2.0 | 0.00 | 0.87 | 0.87 | 94 | 1014.9 |
| 20260830211125 | 78 | 121 | 1.0 | 1.0 | 0.00 | 0.87 | 0.87 | 93 | 1015.0 |
| 20260830210621 | 78 | 108 | 2.0 | 2.0 | 0.00 | 0.87 | 0.87 | 94 | 1015.3 |
| 20260830210120 | 79 | 121 | 0.0 | 0.0 | 0.00 | 0.87 | 0.87 | 94 | 1015.4 |
| 20260830205617 | 79 | 121 | 0.0 | 0.0 | 0.00 | 0.87 | 0.87 | 93 | 1015.1 |
| 20260830205113 | 79 | 121 | 0.0 | 0.0 | 0.00 | 0.87 | 0.87 | 93 | 1015.1 |
| 20260830204612 | 79 | 119 | 0.0 | 0.0 | 0.00 | 0.87 | 0.87 | 93 | 1015.2 |
| 20260830204111 | 79 | 121 | 0.0 | 0.0 | 0.00 | 0.87 | 0.87 | 93 | 1015.3 |
| 20260830203608 | 79 | 120 | 0.0 | 0.0 | 0.00 | 0.87 | 0.87 | 93 | 1015.4 |
| 20260830203107 | 79 | 117 | 0.0 | 0.0 | 0.00 | 0.87 | 0.87 | 92 | 1015.7 |
| 20260830202602 | 79 | 114 | 0.0 | 1.0 | 0.00 | 0.87 | 0.87 | 91 | 1015.2 |
| 20260830202058 | 80 | 106 | 2.0 | 2.0 | 0.00 | 0.87 | 0.87 | 92 | 1015.8 |
| 20260830201557 | 80 | 123 | 0.0 | 0.0 | 0.00 | 0.87 | 0.87 | 90 | 1015.8 |
| 20260830201052 | 80 | 54 | 2.0 | 3.0 | 0.00 | 0.87 | 0.87 | 89 | 1015.9 |
| 20260830200548 | 82 | 133 | 1.0 | 1.0 | 0.00 | 0.87 | 0.87 | 87 | 1015.8 |
| 20260830200046 | 81 | 149 | 3.0 | 3.0 | 0.00 | 0.87 | 0.87 | 88 | 1015.8 |
| 20260830195542 | 80 | 141 | 2.0 | 2.0 | 0.00 | 0.87 | 0.87 | 93 | 1015.8 |
| 20260830195040 | 79 | 137 | 2.0 | 2.0 | 0.00 | 0.87 | 0.87 | 95 | 1015.5 |
| 20260830194539 | 78 | 137 | 1.0 | 2.0 | 0.00 | 0.87 | 0.87 | 95 | 1015.9 |
| 20260830194039 | 77 | 141 | 2.0 | 2.0 | 0.00 | 0.87 | 0.87 | 97 | 1015.9 |
| 20260830193538 | 76 | 179 | 4.0 | 5.0 | 0.00 | 0.87 | 0.87 | 97 | 1016.0 |
| 20260830193034 | 76 | 127 | 1.0 | 1.0 | 0.00 | 0.87 | 0.87 | 96 | 1016.1 |
| 20260830192529 | 76 | 130 | 0.0 | 0.0 | 0.00 | 0.87 | 0.87 | 96 | 1016.3 |